Location: Newark
(45.5000°N, 11.4167°E)
Time: 22:56:20
(UTC+00:00)

Vanguard 3 - Pass Details

Date: 01 September 2019
Orbit: 508 x 3263 km, 33.4° (Epoch: 20 September)

Event Time Altitude Azimuth Distance (km) Brightness Sun altitude
Rises 15:03:27 0° 254° (WSW) 6,258 12.9 28.5°
Reaches altitude 10° 15:08:32 10° 248° (WSW) 4,805 12.8 27.7°
Maximum altitude 15:19:32 39° 187° (S) 2,117 9.8 25.8°
Drops below altitude 10° 15:26:06 10° 121° (ESE) 2,868 9.6 24.7°
Sets 15:28:23 0° 112° (ESE) 3,553 10.0 24.3°
